Cloud_Cover
0 0 0 0 0 0 0 0 0 0 0 0 0 0 0 0 0 0 0 4 0 0 32 4 67 100 100 100 100 100 100 100 100 100 100 100 100 100 100 100 100 100 100 100
0 0 0 0 0 0 0 0 0 0 0 0 0 0 4 1 0 0 0 0 0 0 0 40 100 37 88 93 100 100 100 100 100 100 100 100 100 100 100 100 92 100 100 100
0 0 0 0 0 0 0 0 0 0 1 5 5 5 4 0 0 0 0 0 0 0 5 4 0 82 8 26 77 38 100 91 100 100 100 100 100 100 100 100 100 100 97 100
4 0 0 0 0 0 0 0 0 1 5 5 4 4 0 5 0 0 0 0 0 0 5 5 0 0 0 0 92 25 100 94 37 100 100 100 100 100 100 100 100 100 100 99
5 5 0 0 0 0 1 0 0 2 5 5 5 0 0 5 0 0 0 0 0 0 3 0 1 5 3 0 2 90 100 100 91 5 97 100 100 100 100 100 100 100 100 100
49 5 8 0 1 0 0 3 0 0 4 5 5 5 0 0 0 0 0 0 0 0 2 5 5 5 5 5 5 5 100 100 62 6 6 15 94 100 100 100 100 100 100 100
63 98 61 2 0 5 5 0 0 0 0 4 1 0 0 0 0 0 0 0 0 1 5 5 5 5 5 3 1 5 5 88 100 77 100 28 20 67 83 74 100 100 100 100
99 96 50 2 5 0 0 0 0 0 0 0 0 0 0 0 0 0 0 2 5 5 5 5 5 5 5 0 0 5 5 5 66 100 100 100 100 97 94 100 100 100 100 100
100 100 10 5 5 3 0 0 0 0 0 0 0 0 0 0 0 0 4 5 3 4 4 5 19 5 5 1 5 5 5 10 69 92 76 100 100 100 100 100 100 100 100 100
100 73 2 14 4 0 0 0 0 0 0 0 0 0 0 0 1 3 2 5 5 4 5 13 9 5 5 5 5 5 40 100 100 100 100 100 100 100 99 99 100 100 100 100
100 5 11 38 0 0 0 0 0 0 0 0 0 0 4 5 5 5 5 5 5 6 78 96 56 7 5 5 5 67 100 100 100 100 100 100 100 100 100 90 98 99 100 100
96 5 90 5 0 5 3 0 0 0 0 0 0 0 5 1 5 5 5 5 5 88 100 99 65 45 26 25 81 100 100 100 100 100 100 100 100 100 71 78 100 100 99 88
5 5 7 6 0 5 5 5 0 0 0 0 0 0 0 0 5 5 5 5 67 100 100 100 100 100 93 100 100 100 100 100 100 100 100 100 100 100 100 89 96 99 100 100
5 5 18 5 5 0 4 4 0 4 1 0 0 1 1 4 5 5 5 5 88 83 67 100 100 100 100 100 100 100 100 100 100 100 100 100 100 100 100 100 100 100 100 100
5 89 46 5 2 5 5 5 5 5 2 5 3 0 5 5 3 5 5 8 67 32 97 100 100 100 100 100 100 100 100 100 100 100 100 100 99 95 100 100 100 100 100 100
78 100 70 5 15 5 5 5 5 5 5 5 1 4 5 5 5 5 5 9 28 82 100 100 100 100 100 100 100 100 100 100 100 100 100 100 99 100 94 100 100 100 100 100
100 100 5 5 5 5 5 5 5 5 5 3 0 2 5 4 5 5 5 54 61 100 100 100 100 100 100 100 100 100 100 100 100 100 100 100 100 100 100 100 100 100 100 100
100 72 14 9 5 5 5 5 5 5 5 3 2 5 5 5 5 5 44 55 63 100 100 100 95 86 100 92 100 100 100 100 100 100 100 92 98 100 100 100 100 100 100 100
100 67 31 53 37 58 14 5 5 5 5 5 5 5 5 5 5 6 59 90 16 100 100 100 100 100 97 97 98 97 99 98 100 100 100 99 81 93 100 100 100 100 99 100
65 100 100 60 52 26 5 5 5 5 5 5 5 5 5 5 5 5 5 6 20 91 100 100 100 100 100 95 97 91 88 77 100 100 100 100 98 94 80 88 100 100 100 100
59 14 94 98 54 56 36 5 5 5 5 5 5 5 5 5 5 5 17 16 5 100 100 100 100 100 100 76 80 88 92 97 84 100 100 100 100 100 100 97 97 100 100 100
16 43 84 84 13 6 5 5 5 5 5 5 5 5 5 5 5 5 5 5 16 95 100 100 100 98 67 52 86 98 99 99 99 100 100 100 100 100 97 92 100 100 100 100
42 34 7 17 8 5 5 5 5 5 5 5 5 5 5 5 5 5 5 9 20 47 99 100 84 24 6 87 94 100 100 100 100 100 100 100 100 100 100 100 100 100 99 90
5 5 5 5 5 5 5 5 5 5 5 5 5 5 5 5 11 6 19 65 92 48 93 83 55 5 5 66 90 97 100 100 100 100 100 100 100 100 100 100 100 100 100 100
6 69 90 51 48 6 5 5 5 5 5 5 5 5 15 31 13 5 30 14 50 28 74 64 5 5 5 34 40 42 38 26 36 74 88 88 100 100 100 100 100 100 100 100
86 91 96 84 40 9 5 5 6 5 5 5 7 32 61 21 7 5 5 54 60 67 65 80 49 27 29 51 56 70 60 73 99 79 92 61 85 100 100 100 100 100 100 100
100 100 100 100 76 8 5 5 5 10 16 31 50 21 21 32 9 5 5 45 70 90 66 100 98 68 92 90 72 88 78 61 86 81 71 93 80 92 100 100 100 100 100 100